Hourly Weather Roundup
Issued by NWS Central Illinois

Home | Current Version | Previous Version | Text Only | Print | Product List | Glossary On
Versions: 1 2 3 4 5 6 7 8 9 10 11 12 13 14 15 16 17 18 19 20 21 22 23 24 25 26 27 28 29 30 31 32 33 34 35 36 37 38 39 40 41 42 43 44 45 46 47 48 49 50
000
NZUS43 KILX 091410
HWRILX

AREA WEATHER ROUNDUP
NATIONAL WEATHER SERVICE, LINCOLN IL
800 AM CST FRI DEC 09 2016


CITY           SKY/WX    TMP DP  RH WIND       PRES   REMARKS
BLOOMINGTON    FLURRIES  21  14  74 W12       30.55S WCI   9
CHAMPAIGN      FLURRIES  24  13  62 W10       30.56R WCI  14
DANVILLE       CLOUDY    22  16  77 W7        30.52R WCI  14
DECATUR        LGT SNOW  22  16  78 W3        30.58S
EFFINGHAM      CLOUDY    24  17  75 W7        30.61S WCI  16
FLORA          CLEAR     22  15  74 W8        30.62R WCI  13
GALESBURG      FLURRIES  19  13  79 NW8       30.57F WCI   8
JACKSONVILLE   CLOUDY    21  12  68 NW10      30.60S WCI  10
LACON          CLOUDY    20  13  75 W6        30.56S WCI  12
LAWRENCEVILLE  CLOUDY    23  14  68 NW3       30.62R
LITCHFIELD     CLEAR     17  13  84 W7        30.60S WCI   8
$$


CITY           SKY/WX    TMP DP  RH WIND       PRES   REMARKS
LINCOLN        CLOUDY    23  14  68 NW5       30.58S WCI  17
MACOMB         CLOUDY    20  13  73 NW9       30.61S WCI   9
MATTOON        LGT SNOW  22  15  75 NW12      30.57R WCI  10
MT CARMEL AP   CLOUDY    24  15  68 NW5       30.61R WCI  18
OLNEY-NOBLE AP CLOUDY    23  16  74 W9        30.61S WCI  13
PARIS          CLOUDY    23  16  75 W8        30.57S WCI  13
PEORIA         CLOUDY    21  14  74 W7        30.59R WCI  12
PONTIAC        CLOUDY    22  17  79 W13       30.56S WCI  10
RANTOUL        CLOUDY    24  18  75 W14       30.55S WCI  12
SPRINGFIELD    CLOUDY    23  15  71 NW8       30.59F WCI  14
TAYLORVILLE    FLURRIES  21  15  76 CALM      30.59F
$$

...REGIONAL REPORTS...


CITY           SKY/WX    TMP DP  RH WIND       PRES   REMARKS
CHICAGO O`HARE FLURRIES  23  17  78 W12       30.50R WCI  12
KANKAKEE       FLURRIES  23  17  80 W12       30.54R WCI  11
MOLINE         CLOUDY    18  10  71 W9        30.58R WCI   7
MOUNT STERLING CLOUDY    19  11  72 NW8       30.59S WCI   9
MOUNT VERNON   NOT AVBL
PITTSFIELD     CLOUDY    17  13  82 W6        30.62R WCI   9
QUINCY         CLOUDY    17  13  84 W6        30.61R WCI   9
ROCKFORD       FLURRIES  22  16  78 W10       30.53S WCI  11
$$


CITY           SKY/WX    TMP DP  RH WIND       PRES   REMARKS
BURLINGTON     CLOUDY    18  11  74 N8        30.59S WCI   8
CEDAR RAPIDS   CLEAR     10   9  95 NW7       30.56S WCI  -1
DES MOINES     MOCLDY    10   5  80 W6        30.61  WCI   0
KIRKSVILLE     CLEAR     10   6  84 W6        30.62R WCI   0
OTTUMWA        CLOUDY    15   9  76 W8        30.60R WCI   4
ST LOUIS       PTCLDY    20  11  68 W8        30.63S WCI  10
$$


CITY           SKY/WX    TMP DP  RH WIND       PRES   REMARKS
TERRE HAUTE    CLOUDY    23  12  62 NW7       30.58R WCI  15
EVANSVILLE     CLOUDY    24  13  62 N5        30.63R WCI  18
INDIANAPOLIS   FLURRIES  21  16  81 W13       30.52R WCI   9
LAFAYETTE      LGT SNOW  22  18  85 W10       30.53R FOG     WCI  11
MADISON        MOCLDY    20  10  65 NW6       30.49R WCI  12
MILWAUKEE      PTCLDY    23  14  68 W13       30.47R WCI  11
$$





USA.gov is the U.S. government's official web portal to all federal, state and local government web resources and services.